Quincy, IL

3:15 PM CST on January 22, 2018 (GMT -0600)
Quincy Regional-Baldwin

Weather History for KUIN - May, 2014

Change the Weather History Date:

Thursday, May 29, 2014

  Actual Average Record
Temperature  
Mean Temperature 77 °F 67 °F  
Max Temperature 85 °F 77 °F 96 °F (1926)
Min Temperature 68 °F 57 °F 38 °F (1947)
Degree Days  
Heating Degree Days 0 2  
Month to date heating degree days 128 132  
Since 1 July heating degree days 6251 5562  
Cooling Degree Days 12 4  
Month to date cooling degree days 115 59  
Year to date cooling degree days 119 77  
Growing Degree Days 26 (Base 50)    
Moisture  
Dew Point 65 °F    
Average Humidity 69    
Maximum Humidity 90    
Minimum Humidity 48    
Precipitation  
Precipitation 0.00 in 0.15 in 1.87 in (1924)
Month to date precipitation 2.08 4.23  
Year to date precipitation 8.33 13.78  
Sea Level Pressure  
Sea Level Pressure 29.98 in    
Wind  
Wind Speed 8 mph (East)    
Max Wind Speed 15 mph    
Max Gust Speed 20 mph    
Visibility 8 miles    
Events      
T = Trace of Precipitation, MM = Missing Value Source: NWS Daily Summary

Daily Weather History Graph

Daily Weather History Graph

Search for Another Location

Airport or City:

Trip Planner

Search our weather history database for the weather conditions in past years. The results will help you decide how hot, cold, wet, or windy it might be!

Date:

Astronomy

May. 29, 2014 Rise Set
Actual Time 5:39 AM CDT 8:25 PM CDT
Civil Twilight 5:07 AM CDT 8:57 PM CDT
Nautical Twilight 4:27 AM CDT 9:37 PM CDT
Astronomical Twilight 3:42 AM CDT 10:22 PM CDT
Moon 6:33 AM CDT (5/29) 9:15 PM CDT (5/29)
Length of Visible Light 15h 49m
Length of Day
14h 45m
New Moon, 1% of the Moon is Illuminated
May 29
New Moon
Jun 5
First Quarter
Jun 12
Full
Jun 19
Last Quarter
Jun 27
New

Hourly Weather History & Observations

Time (CDT) Temp. Heat Index Dew Point Humidity Pressure Visibility Wind Dir Wind Speed Gust Speed Precip Events Conditions
12:54 AM 69.8 °F - 66.2 °F 88% 29.95 in 10.0 mi East 6.9 mph - N/A   Partly Cloudy
1:54 AM 70.0 °F - 66.0 °F 87% 29.92 in 10.0 mi ENE 6.9 mph - N/A   Clear
2:54 AM 69.1 °F - 66.0 °F 90% 29.93 in 8.0 mi NE 6.9 mph - N/A   Clear
3:31 AM 69.1 °F - 66.0 °F 90% 29.95 in 6.0 mi ENE 5.8 mph - N/A   Partly Cloudy
3:54 AM 69.1 °F - 66.0 °F 90% 29.94 in 6.0 mi ENE 6.9 mph - N/A   Partly Cloudy
4:44 AM 69.1 °F - 66.0 °F 90% 29.96 in 5.0 mi ENE 5.8 mph - N/A   Overcast
4:54 AM 69.1 °F - 66.0 °F 90% 29.95 in 5.0 mi East 5.8 mph - N/A   Mostly Cloudy
5:35 AM 69.1 °F - 66.0 °F 90% 29.98 in 5.0 mi East 6.9 mph - N/A   Mostly Cloudy
5:54 AM 69.1 °F - 64.9 °F 87% 29.96 in 4.0 mi East 8.1 mph - N/A   Scattered Clouds
6:54 AM 68.0 °F - 64.9 °F 90% 29.98 in 4.0 mi East 6.9 mph - N/A   Clear
7:12 AM 68.0 °F - 64.0 °F 87% 30.00 in 4.0 mi East 8.1 mph - N/A   Partly Cloudy
7:54 AM 69.1 °F - 64.0 °F 84% 29.99 in 5.0 mi East 6.9 mph - N/A   Haze
8:54 AM 72.0 °F - 64.9 °F 78% 30.01 in 6.0 mi ENE 8.1 mph - N/A   Haze
9:54 AM 73.0 °F - 66.0 °F 79% 30.01 in 6.0 mi East 8.1 mph - N/A   Haze
10:54 AM 77.0 °F - 66.9 °F 71% 30.01 in 10.0 mi ESE 6.9 mph - N/A   Clear
11:54 AM 81.0 °F 83.3 °F 66.9 °F 62% 30.01 in 10.0 mi East 4.6 mph - N/A   Clear
12:54 PM 82.0 °F 83.8 °F 64.9 °F 56% 30.00 in 10.0 mi East 8.1 mph - N/A   Scattered Clouds
1:54 PM 84.0 °F 85.4 °F 64.0 °F 51% 29.98 in 10.0 mi East 6.9 mph - N/A   Scattered Clouds
2:54 PM 81.0 °F 82.7 °F 64.9 °F 58% 29.98 in 10.0 mi SSE 10.4 mph - N/A   Overcast
3:54 PM 82.4 °F 83.4 °F 62.6 °F 51% 29.97 in 10.0 mi ESE 8.1 mph - N/A   Partly Cloudy
4:54 PM 84.2 °F 85.0 °F 62.6 °F 48% 29.97 in 10.0 mi ESE 8.1 mph - N/A   Scattered Clouds
5:54 PM 81.0 °F 82.7 °F 64.9 °F 58% 29.96 in 10.0 mi East 11.5 mph - N/A   Scattered Clouds
6:54 PM 80.1 °F 81.9 °F 64.9 °F 60% 29.96 in 10.0 mi ESE 11.5 mph - N/A   Clear
7:54 PM 79.0 °F - 64.9 °F 62% 29.98 in 10.0 mi East 8.1 mph - N/A   Clear
8:54 PM 75.0 °F - 66.0 °F 73% 29.99 in 10.0 mi East 6.9 mph - N/A   Clear
9:54 PM 73.0 °F - 66.0 °F 79% 30.01 in 10.0 mi East 6.9 mph - N/A   Clear
10:54 PM 72.0 °F - 66.0 °F 81% 30.02 in 10.0 mi East 5.8 mph - N/A   Clear
11:54 PM 71.1 °F - 66.0 °F 84% 30.02 in 10.0 mi ESE 6.9 mph - N/A   Clear